QPF
0.00 0.00 0.00 0.00 0.00 0.00 0.00 0.00 0.00 0.00 0.00 0.00 0.00 0.00 0.00 0.01 0.02 0.11 0.08 0.01 0.00 0.00 0.00 0.00 0.00 0.00 0.00 0.00 0.00 0.00 0.00 0.00 0.00 0.00 0.00 0.00 0.00 0.00 0.00 0.00 0.00 0.00 0.00 0.00 0.00 0.01 0.01 0.00 0.00
0.00 0.00 0.00 0.00 0.00 0.00 0.00 0.00 0.00 0.00 0.00 0.00 0.00 0.00 0.00 0.01 0.01 0.01 0.01 0.00 0.00 0.00 0.00 0.00 0.00 0.00 0.00 0.00 0.00 0.00 0.00 0.00 0.00 0.00 0.00 0.00 0.00 0.00 0.00 0.00 0.00 0.00 0.00 0.00 0.00 0.00 0.00 0.00 0.00
0.00 0.00 0.00 0.00 0.00 0.00 0.00 0.00 0.00 0.00 0.00 0.00 0.00 0.00 0.02 0.04 0.01 0.00 0.00 0.00 0.00 0.00 0.00 0.00 0.00 0.00 0.00 0.00 0.00 0.00 0.00 0.00 0.00 0.00 0.00 0.00 0.00 0.00 0.00 0.00 0.00 0.00 0.00 0.00 0.00 0.00 0.00 0.00 0.00
0.00 0.00 0.00 0.00 0.00 0.00 0.00 0.00 0.00 0.00 0.00 0.00 0.00 0.00 0.01 0.02 0.01 0.00 0.00 0.00 0.00 0.00 0.00 0.00 0.00 0.00 0.00 0.00 0.00 0.00 0.00 0.00 0.00 0.00 0.00 0.00 0.00 0.00 0.00 0.00 0.00 0.00 0.00 0.00 0.00 0.00 0.00 0.00 0.00
0.00 0.00 0.00 0.00 0.00 0.00 0.00 0.00 0.00 0.00 0.00 0.00 0.00 0.00 0.01 0.03 0.01 0.01 0.00 0.00 0.00 0.00 0.00 0.00 0.00 0.00 0.00 0.00 0.00 0.00 0.00 0.00 0.00 0.00 0.00 0.00 0.00 0.00 0.00 0.00 0.00 0.00 0.00 0.00 0.00 0.00 0.00 0.00 0.00
0.00 0.00 0.00 0.00 0.00 0.00 0.00 0.00 0.00 0.00 0.00 0.00 0.00 0.00 0.01 0.02 0.02 0.01 0.00 0.00 0.00 0.00 0.00 0.00 0.00 0.00 0.00 0.00 0.00 0.01 0.00 0.00 0.00 0.00 0.01 0.00 0.00 0.00 0.00 0.00 0.00 0.00 0.00 0.00 0.00 0.00 0.00 0.00 0.00
0.00 0.00 0.00 0.00 0.00 0.00 0.00 0.00 0.00 0.00 0.00 0.00 0.00 0.00 0.01 0.01 0.02 0.01 0.00 0.00 0.01 0.01 0.01 0.00 0.00 0.00 0.00 0.00 0.01 0.01 0.01 0.01 0.01 0.01 0.00 0.00 0.00 0.00 0.00 0.00 0.00 0.00 0.00 0.00 0.00 0.00 0.00 0.00 0.00
0.00 0.00 0.00 0.00 0.00 0.00 0.00 0.00 0.00 0.00 0.00 0.00 0.00 0.00 0.02 0.01 0.02 0.02 0.00 0.01 0.02 0.03 0.03 0.02 0.01 0.01 0.00 0.01 0.01 0.01 0.01 0.02 0.01 0.01 0.00 0.00 0.00 0.00 0.00 0.00 0.00 0.00 0.00 0.00 0.00 0.00 0.00 0.00 0.00
0.00 0.00 0.00 0.00 0.00 0.00 0.00 0.00 0.00 0.00 0.00 0.00 0.00 0.00 0.03 0.03 0.01 0.01 0.01 0.02 0.03 0.05 0.05 0.05 0.04 0.04 0.02 0.01 0.01 0.01 0.01 0.02 0.02 0.01 0.01 0.01 0.01 0.02 0.01 0.01 0.01 0.00 0.00 0.00 0.00 0.00 0.00 0.00 0.00
0.00 0.00 0.00 0.00 0.00 0.00 0.00 0.00 0.00 0.00 0.00 0.00 0.00 0.00 0.01 0.03 0.01 0.00 0.01 0.03 0.05 0.06 0.07 0.07 0.07 0.07 0.05 0.03 0.03 0.03 0.02 0.02 0.02 0.03 0.02 0.02 0.06 0.07 0.06 0.06 0.02 0.01 0.01 0.00 0.00 0.00 0.00 0.00 0.01
0.00 0.00 0.00 0.00 0.00 0.00 0.00 0.00 0.00 0.00 0.00 0.00 0.00 0.00 0.01 0.01 0.01 0.01 0.03 0.07 0.11 0.09 0.09 0.10 0.12 0.13 0.09 0.09 0.10 0.09 0.09 0.09 0.06 0.08 0.06 0.07 0.10 0.09 0.11 0.09 0.05 0.03 0.02 0.02 0.02 0.01 0.01 0.02 0.02
0.00 0.00 0.00 0.00 0.00 0.00 0.00 0.00 0.00 0.00 0.00 0.00 0.01 0.01 0.02 0.03 0.03 0.04 0.05 0.07 0.08 0.08 0.09 0.11 0.15 0.16 0.16 0.15 0.20 0.19 0.16 0.15 0.15 0.15 0.12 0.13 0.15 0.14 0.12 0.12 0.10 0.10 0.07 0.06 0.06 0.04 0.02 0.03 0.02
0.00 0.00 0.00 0.00 0.00 0.00 0.00 0.00 0.00 0.00 0.00 0.00 0.00 0.01 0.03 0.07 0.08 0.10 0.08 0.08 0.12 0.15 0.13 0.12 0.16 0.15 0.14 0.16 0.21 0.19 0.19 0.23 0.28 0.26 0.20 0.21 0.18 0.15 0.18 0.19 0.19 0.15 0.15 0.13 0.09 0.08 0.05 0.05 0.03
0.00 0.00 0.00 0.00 0.00 0.00 0.00 0.00 0.00 0.00 0.00 0.00 0.00 0.01 0.02 0.05 0.06 0.09 0.10 0.12 0.17 0.25 0.25 0.17 0.19 0.20 0.17 0.16 0.20 0.19 0.18 0.25 0.29 0.32 0.32 0.32 0.27 0.27 0.29 0.29 0.25 0.19 0.17 0.23 0.19 0.11 0.08 0.07 0.05
0.00 0.00 0.00 0.00 0.00 0.00 0.00 0.00 0.00 0.00 0.00 0.00 0.01 0.01 0.02 0.04 0.08 0.10 0.10 0.13 0.17 0.25 0.30 0.22 0.20 0.27 0.25 0.24 0.23 0.26 0.26 0.29 0.31 0.35 0.41 0.42 0.39 0.37 0.34 0.37 0.34 0.26 0.22 0.22 0.21 0.18 0.11 0.09 0.07
0.00 0.00 0.00 0.00 0.00 0.00 0.00 0.00 0.01 0.00 0.00 0.01 0.04 0.03 0.02 0.03 0.08 0.15 0.13 0.10 0.15 0.20 0.27 0.20 0.15 0.22 0.29 0.28 0.28 0.30 0.32 0.33 0.39 0.39 0.45 0.46 0.49 0.46 0.42 0.36 0.31 0.25 0.22 0.22 0.19 0.16 0.15 0.14 0.12
0.00 0.00 0.00 0.00 0.00 0.00 0.00 0.01 0.02 0.00 0.00 0.01 0.05 0.04 0.02 0.02 0.04 0.09 0.15 0.13 0.13 0.20 0.21 0.21 0.22 0.29 0.32 0.33 0.31 0.31 0.36 0.38 0.43 0.44 0.45 0.50 0.55 0.48 0.43 0.39 0.31 0.28 0.28 0.25 0.19 0.20 0.16 0.19 0.17
0.00 0.00 0.00 0.00 0.00 0.00 0.00 0.01 0.01 0.01 0.00 0.01 0.01 0.01 0.01 0.02 0.03 0.03 0.06 0.07 0.08 0.10 0.14 0.15 0.18 0.22 0.27 0.31 0.36 0.38 0.36 0.35 0.36 0.38 0.38 0.46 0.52 0.47 0.35 0.30 0.31 0.29 0.29 0.27 0.25 0.25 0.21 0.18 0.15
0.00 0.00 0.00 0.00 0.00 0.01 0.01 0.01 0.01 0.01 0.01 0.01 0.01 0.01 0.01 0.01 0.01 0.01 0.02 0.03 0.05 0.06 0.09 0.12 0.15 0.17 0.20 0.23 0.26 0.30 0.24 0.19 0.21 0.24 0.25 0.31 0.36 0.34 0.28 0.22 0.20 0.22 0.22 0.22 0.20 0.20 0.19 0.17 0.14
0.00 0.00 0.00 0.00 0.00 0.00 0.01 0.01 0.01 0.01 0.01 0.01 0.02 0.02 0.01 0.01 0.02 0.02 0.02 0.02 0.02 0.03 0.05 0.09 0.12 0.15 0.14 0.15 0.18 0.20 0.20 0.19 0.17 0.19 0.20 0.22 0.24 0.23 0.20 0.19 0.19 0.18 0.18 0.21 0.20 0.18 0.18 0.15 0.12
0.00 0.00 0.00 0.00 0.01 0.00 0.01 0.03 0.05 0.03 0.02 0.03 0.05 0.04 0.03 0.01 0.01 0.01 0.02 0.02 0.02 0.02 0.04 0.06 0.08 0.09 0.11 0.13 0.15 0.16 0.15 0.14 0.13 0.15 0.16 0.17 0.18 0.20 0.22 0.20 0.19 0.17 0.17 0.17 0.16 0.12 0.13 0.15 0.13
0.00 0.00 0.00 0.00 0.01 0.02 0.03 0.07 0.09 0.07 0.04 0.04 0.05 0.03 0.03 0.01 0.01 0.01 0.02 0.02 0.02 0.02 0.03 0.05 0.06 0.08 0.09 0.12 0.12 0.13 0.13 0.13 0.13 0.15 0.12 0.11 0.10 0.12 0.14 0.16 0.17 0.19 0.17 0.15 0.15 0.12 0.10 0.11 0.10
0.00 0.00 0.00 0.01 0.01 0.02 0.03 0.07 0.11 0.09 0.08 0.07 0.06 0.05 0.03 0.02 0.02 0.02 0.03 0.03 0.03 0.03 0.03 0.03 0.05 0.07 0.09 0.10 0.12 0.16 0.15 0.14 0.14 0.12 0.10 0.08 0.08 0.09 0.11 0.13 0.13 0.14 0.15 0.14 0.14 0.12 0.09 0.08 0.06
0.00 0.00 0.01 0.02 0.02 0.04 0.02 0.04 0.10 0.12 0.12 0.12 0.10 0.10 0.07 0.04 0.03 0.02 0.03 0.03 0.03 0.03 0.03 0.04 0.04 0.05 0.07 0.09 0.10 0.12 0.14 0.14 0.14 0.13 0.13 0.12 0.11 0.12 0.15 0.15 0.15 0.15 0.14 0.12 0.12 0.10 0.09 0.08 0.06
0.00 0.00 0.04 0.06 0.07 0.07 0.03 0.03 0.12 0.11 0.10 0.15 0.15 0.09 0.05 0.04 0.03 0.02 0.02 0.02 0.02 0.03 0.04 0.04 0.03 0.04 0.06 0.07 0.09 0.11 0.11 0.10 0.11 0.12 0.13 0.13 0.12 0.12 0.12 0.12 0.12 0.12 0.11 0.09 0.08 0.06 0.04 0.04 0.03
0.00 0.00 0.05 0.10 0.09 0.08 0.08 0.10 0.13 0.11 0.10 0.13 0.13 0.11 0.07 0.04 0.04 0.02 0.02 0.02 0.02 0.02 0.03 0.03 0.03 0.04 0.05 0.05 0.06 0.08 0.08 0.06 0.06 0.07 0.07 0.08 0.08 0.08 0.08 0.08 0.07 0.06 0.06 0.05 0.04 0.03 0.02 0.02 0.01
0.00 0.01 0.01 0.03 0.04 0.05 0.09 0.15 0.13 0.11 0.13 0.11 0.07 0.06 0.06 0.04 0.03 0.02 0.02 0.01 0.02 0.02 0.02 0.03 0.03 0.03 0.03 0.04 0.05 0.06 0.06 0.05 0.05 0.04 0.05 0.06 0.07 0.07 0.07 0.06 0.05 0.05 0.04 0.03 0.02 0.02 0.01 0.01 0.01
0.00 0.01 0.01 0.02 0.06 0.08 0.09 0.16 0.20 0.16 0.17 0.11 0.06 0.06 0.06 0.03 0.03 0.02 0.02 0.02 0.02 0.02 0.03 0.04 0.04 0.04 0.03 0.03 0.04 0.05 0.05 0.04 0.03 0.03 0.03 0.04 0.04 0.05 0.05 0.04 0.04 0.03 0.03 0.02 0.01 0.01 0.01 0.00 0.00
0.00 0.00 0.00 0.01 0.02 0.07 0.14 0.19 0.17 0.21 0.20 0.10 0.05 0.04 0.05 0.03 0.02 0.02 0.02 0.03 0.04 0.04 0.04 0.04 0.04 0.05 0.05 0.04 0.04 0.04 0.04 0.04 0.03 0.03 0.03 0.02 0.02 0.02 0.02 0.02 0.02 0.02 0.02 0.01 0.01 0.01 0.00 0.00 0.00
0.00 0.00 0.00 0.02 0.02 0.03 0.09 0.15 0.12 0.13 0.13 0.09 0.08 0.07 0.06 0.05 0.05 0.04 0.03 0.03 0.05 0.07 0.06 0.06 0.05 0.05 0.06 0.05 0.04 0.03 0.03 0.03 0.02 0.02 0.02 0.02 0.02 0.01 0.01 0.01 0.00 0.00 0.00 0.00 0.00 0.00 0.00 0.00 0.00
MSLP
1008.84 1009.26 1009.67 1009.93 1009.96 1009.75 1009.33 1008.79 1008.22 1007.75 1007.44 1007.32 1007.35 1007.46 1007.58 1007.64 1007.59 1007.44 1007.24 1007.07 1007.02 1007.16 1007.49 1008.02 1008.68 1009.38 1010.05 1010.62 1011.07 1011.41 1011.68 1011.94 1012.25 1012.64 1013.11 1013.62 1014.14 1014.59 1014.95 1015.19 1015.32 1015.38 1015.43 1015.49 1015.60 1015.76 1015.97 1016.19 1016.38
1009.21 1009.68 1010.03 1010.15 1009.98 1009.52 1008.84 1008.06 1007.31 1006.71 1006.33 1006.17 1006.21 1006.35 1006.52 1006.63 1006.65 1006.59 1006.50 1006.45 1006.53 1006.79 1007.25 1007.87 1008.60 1009.34 1010.01 1010.57 1011.01 1011.34 1011.62 1011.91 1012.26 1012.70 1013.21 1013.74 1014.26 1014.69 1015.01 1015.21 1015.30 1015.34 1015.38 1015.46 1015.60 1015.80 1016.04 1016.27 1016.45
1009.61 1010.08 1010.35 1010.31 1009.93 1009.24 1008.34 1007.36 1006.46 1005.75 1005.30 1005.11 1005.14 1005.30 1005.49 1005.64 1005.71 1005.72 1005.73 1005.80 1006.02 1006.41 1006.98 1007.70 1008.50 1009.27 1009.96 1010.52 1010.95 1011.29 1011.59 1011.91 1012.30 1012.76 1013.28 1013.82 1014.31 1014.71 1014.99 1015.16 1015.24 1015.29 1015.36 1015.49 1015.69 1015.94 1016.21 1016.45 1016.62
1009.93 1010.36 1010.52 1010.33 1009.78 1008.91 1007.85 1006.75 1005.75 1004.98 1004.49 1004.29 1004.30 1004.44 1004.63 1004.79 1004.90 1004.97 1005.06 1005.25 1005.59 1006.10 1006.79 1007.60 1008.45 1009.26 1009.96 1010.53 1010.97 1011.32 1011.64 1011.98 1012.39 1012.86 1013.38 1013.90 1014.36 1014.73 1014.98 1015.13 1015.23 1015.31 1015.45 1015.64 1015.91 1016.22 1016.52 1016.76 1016.91
1010.06 1010.42 1010.48 1010.16 1009.49 1008.53 1007.40 1006.26 1005.25 1004.48 1003.99 1003.78 1003.77 1003.89 1004.05 1004.20 1004.32 1004.43 1004.60 1004.88 1005.33 1005.95 1006.73 1007.61 1008.51 1009.34 1010.06 1010.63 1011.07 1011.43 1011.77 1012.13 1012.55 1013.03 1013.54 1014.03 1014.46 1014.80 1015.03 1015.18 1015.31 1015.45 1015.65 1015.92 1016.26 1016.61 1016.93 1017.16 1017.27
1009.95 1010.22 1010.18 1009.78 1009.06 1008.09 1007.00 1005.92 1004.98 1004.27 1003.82 1003.61 1003.58 1003.66 1003.78 1003.90 1004.01 1004.14 1004.36 1004.72 1005.25 1005.95 1006.80 1007.73 1008.65 1009.49 1010.20 1010.77 1011.22 1011.59 1011.94 1012.32 1012.76 1013.24 1013.74 1014.21 1014.61 1014.93 1015.15 1015.32 1015.48 1015.67 1015.93 1016.27 1016.65 1017.03 1017.35 1017.55 1017.61
1009.61 1009.77 1009.65 1009.23 1008.53 1007.64 1006.66 1005.72 1004.91 1004.31 1003.92 1003.74 1003.69 1003.72 1003.78 1003.84 1003.92 1004.06 1004.31 1004.71 1005.30 1006.05 1006.93 1007.87 1008.78 1009.61 1010.31 1010.87 1011.32 1011.71 1012.08 1012.49 1012.94 1013.43 1013.92 1014.38 1014.77 1015.08 1015.31 1015.50 1015.68 1015.91 1016.21 1016.57 1016.96 1017.34 1017.63 1017.79 1017.80
1009.10 1009.16 1008.98 1008.57 1007.95 1007.19 1006.39 1005.63 1004.99 1004.51 1004.20 1004.03 1003.96 1003.93 1003.92 1003.93 1003.97 1004.09 1004.34 1004.76 1005.36 1006.12 1006.99 1007.90 1008.79 1009.58 1010.26 1010.81 1011.27 1011.67 1012.08 1012.52 1013.00 1013.51 1014.01 1014.48 1014.87 1015.18 1015.42 1015.62 1015.82 1016.06 1016.37 1016.72 1017.10 1017.44 1017.69 1017.80 1017.77
1008.53 1008.49 1008.29 1007.91 1007.40 1006.80 1006.19 1005.62 1005.15 1004.79 1004.54 1004.38 1004.26 1004.17 1004.09 1004.03 1004.03 1004.12 1004.35 1004.76 1005.33 1006.05 1006.87 1007.73 1008.56 1009.30 1009.95 1010.49 1010.96 1011.41 1011.86 1012.34 1012.86 1013.40 1013.94 1014.42 1014.83 1015.15 1015.41 1015.62 1015.83 1016.06 1016.35 1016.67 1016.99 1017.28 1017.48 1017.55 1017.48
1008.00 1007.89 1007.67 1007.34 1006.94 1006.50 1006.06 1005.66 1005.32 1005.05 1004.83 1004.65 1004.49 1004.33 1004.18 1004.07 1004.02 1004.07 1004.27 1004.63 1005.14 1005.79 1006.53 1007.30 1008.05 1008.74 1009.35 1009.89 1010.39 1010.88 1011.38 1011.92 1012.49 1013.08 1013.64 1014.15 1014.59 1014.94 1015.22 1015.44 1015.66 1015.88 1016.13 1016.40 1016.66 1016.89 1017.04 1017.08 1017.02
1007.60 1007.44 1007.20 1006.92 1006.61 1006.29 1005.98 1005.70 1005.44 1005.21 1004.99 1004.78 1004.57 1004.36 1004.16 1004.00 1003.92 1003.94 1004.09 1004.38 1004.81 1005.36 1005.99 1006.65 1007.31 1007.94 1008.53 1009.08 1009.61 1010.15 1010.72 1011.31 1011.93 1012.55 1013.15 1013.69 1014.15 1014.54 1014.85 1015.10 1015.32 1015.54 1015.76 1015.98 1016.19 1016.37 1016.48 1016.52 1016.49
1007.37 1007.17 1006.93 1006.68 1006.43 1006.18 1005.94 1005.70 1005.47 1005.24 1005.00 1004.75 1004.50 1004.26 1004.05 1003.88 1003.78 1003.78 1003.88 1004.10 1004.43 1004.86 1005.37 1005.91 1006.49 1007.06 1007.63 1008.20 1008.78 1009.37 1009.99 1010.62 1011.27 1011.91 1012.53 1013.09 1013.58 1014.00 1014.34 1014.63 1014.88 1015.11 1015.32 1015.52 1015.70 1015.84 1015.95 1016.02 1016.04
1007.31 1007.08 1006.83 1006.59 1006.35 1006.12 1005.89 1005.66 1005.41 1005.15 1004.88 1004.62 1004.36 1004.13 1003.94 1003.80 1003.73 1003.72 1003.78 1003.93 1004.16 1004.46 1004.84 1005.27 1005.76 1006.30 1006.86 1007.46 1008.08 1008.71 1009.36 1010.02 1010.67 1011.29 1011.89 1012.45 1012.95 1013.39 1013.78 1014.12 1014.42 1014.67 1014.90 1015.10 1015.28 1015.44 1015.57 1015.68 1015.78
1007.36 1007.11 1006.85 1006.59 1006.34 1006.09 1005.83 1005.56 1005.28 1004.99 1004.71 1004.46 1004.25 1004.09 1003.98 1003.92 1003.90 1003.91 1003.96 1004.04 1004.17 1004.35 1004.60 1004.93 1005.35 1005.85 1006.42 1007.04 1007.70 1008.36 1009.02 1009.65 1010.26 1010.83 1011.37 1011.88 1012.37 1012.82 1013.25 1013.64 1013.99 1014.30 1014.58 1014.82 1015.02 1015.21 1015.39 1015.58 1015.77
1007.46 1007.19 1006.90 1006.62 1006.34 1006.05 1005.75 1005.44 1005.13 1004.84 1004.59 1004.40 1004.29 1004.25 1004.27 1004.33 1004.41 1004.47 1004.51 1004.54 1004.57 1004.64 1004.78 1005.01 1005.37 1005.84 1006.41 1007.05 1007.73 1008.40 1009.03 1009.61 1010.13 1010.60 1011.05 1011.48 1011.91 1012.35 1012.80 1013.24 1013.66 1014.03 1014.37 1014.66 1014.92 1015.16 1015.41 1015.67 1015.97
1007.54 1007.25 1006.94 1006.63 1006.32 1006.00 1005.68 1005.35 1005.04 1004.78 1004.61 1004.53 1004.57 1004.70 1004.89 1005.11 1005.30 1005.43 1005.48 1005.46 1005.41 1005.37 1005.39 1005.53 1005.82 1006.27 1006.83 1007.48 1008.16 1008.81 1009.39 1009.89 1010.29 1010.64 1010.95 1011.27 1011.62 1012.02 1012.47 1012.94 1013.41 1013.86 1014.26 1014.62 1014.93 1015.23 1015.54 1015.88 1016.27
1007.55 1007.24 1006.92 1006.62 1006.30 1005.99 1005.67 1005.36 1005.10 1004.91 1004.85 1004.92 1005.14 1005.46 1005.85 1006.24 1006.56 1006.76 1006.82 1006.75 1006.61 1006.46 1006.38 1006.42 1006.64 1007.03 1007.58 1008.22 1008.87 1009.49 1010.00 1010.40 1010.68 1010.88 1011.05 1011.25 1011.50 1011.85 1012.27 1012.75 1013.26 1013.76 1014.21 1014.62 1014.99 1015.34 1015.70 1016.10 1016.56
1007.46 1007.15 1006.86 1006.59 1006.32 1006.05 1005.78 1005.54 1005.36 1005.28 1005.35 1005.59 1005.99 1006.51 1007.08 1007.62 1008.06 1008.32 1008.38 1008.27 1008.04 1007.78 1007.58 1007.51 1007.64 1007.97 1008.47 1009.07 1009.69 1010.25 1010.70 1011.00 1011.17 1011.25 1011.29 1011.37 1011.54 1011.81 1012.20 1012.67 1013.19 1013.72 1014.20 1014.64 1015.04 1015.42 1015.81 1016.26 1016.77
1007.27 1007.01 1006.79 1006.61 1006.44 1006.26 1006.10 1005.95 1005.88 1005.93 1006.13 1006.52 1007.07 1007.75 1008.46 1009.13 1009.65 1009.95 1010.01 1009.84 1009.53 1009.15 1008.82 1008.63 1008.65 1008.89 1009.32 1009.86 1010.43 1010.94 1011.33 1011.57 1011.66 1011.65 1011.61 1011.60 1011.69 1011.91 1012.26 1012.71 1013.22 1013.74 1014.24 1014.68 1015.09 1015.47 1015.88 1016.33 1016.86
1007.01 1006.85 1006.76 1006.73 1006.70 1006.68 1006.65 1006.64 1006.68 1006.84 1007.15 1007.64 1008.30 1009.07 1009.87 1010.61 1011.17 1011.49 1011.53 1011.31 1010.91 1010.43 1009.98 1009.66 1009.56 1009.68 1010.00 1010.46 1010.97 1011.43 1011.79 1012.00 1012.06 1012.03 1011.96 1011.92 1011.98 1012.17 1012.48 1012.91 1013.39 1013.89 1014.36 1014.79 1015.17 1015.54 1015.93 1016.37 1016.89
1006.72 1006.72 1006.82 1006.98 1007.16 1007.33 1007.47 1007.59 1007.74 1007.98 1008.35 1008.88 1009.56 1010.36 1011.18 1011.93 1012.50 1012.81 1012.83 1012.57 1012.11 1011.54 1010.98 1010.54 1010.30 1010.30 1010.50 1010.86 1011.30 1011.73 1012.07 1012.29 1012.39 1012.39 1012.36 1012.35 1012.42 1012.61 1012.90 1013.30 1013.74 1014.20 1014.63 1015.02 1015.37 1015.70 1016.06 1016.47 1016.95
1006.45 1006.64 1006.97 1007.38 1007.79 1008.17 1008.49 1008.75 1008.99 1009.27 1009.65 1010.15 1010.79 1011.54 1012.31 1013.02 1013.56 1013.86 1013.87 1013.61 1013.12 1012.50 1011.87 1011.33 1010.97 1010.84 1010.92 1011.17 1011.53 1011.92 1012.27 1012.54 1012.71 1012.80 1012.86 1012.94 1013.06 1013.27 1013.57 1013.93 1014.33 1014.74 1015.11 1015.45 1015.75 1016.04 1016.35 1016.71 1017.15
1006.22 1006.64 1007.21 1007.87 1008.53 1009.13 1009.63 1010.02 1010.33 1010.62 1010.96 1011.39 1011.93 1012.57 1013.24 1013.88 1014.38 1014.67 1014.70 1014.47 1014.01 1013.40 1012.75 1012.15 1011.70 1011.45 1011.41 1011.55 1011.83 1012.18 1012.55 1012.87 1013.14 1013.35 1013.53 1013.71 1013.92 1014.17 1014.47 1014.80 1015.16 1015.50 1015.81 1016.09 1016.34 1016.59 1016.85 1017.16 1017.53
1006.05 1006.68 1007.49 1008.38 1009.27 1010.08 1010.74 1011.25 1011.62 1011.91 1012.19 1012.52 1012.94 1013.44 1014.01 1014.56 1015.02 1015.32 1015.40 1015.24 1014.87 1014.33 1013.72 1013.12 1012.62 1012.29 1012.14 1012.18 1012.38 1012.69 1013.05 1013.42 1013.78 1014.11 1014.41 1014.70 1014.98 1015.27 1015.57 1015.87 1016.17 1016.44 1016.69 1016.91 1017.12 1017.32 1017.54 1017.80 1018.10
1005.93 1006.73 1007.72 1008.81 1009.89 1010.87 1011.69 1012.31 1012.75 1013.05 1013.28 1013.52 1013.82 1014.20 1014.64 1015.12 1015.56 1015.88 1016.05 1016.01 1015.78 1015.38 1014.87 1014.33 1013.84 1013.46 1013.24 1013.18 1013.29 1013.53 1013.87 1014.26 1014.68 1015.10 1015.49 1015.86 1016.20 1016.51 1016.79 1017.05 1017.28 1017.48 1017.66 1017.82 1017.98 1018.15 1018.34 1018.56 1018.81
1005.86 1006.74 1007.84 1009.05 1010.26 1011.39 1012.34 1013.08 1013.60 1013.94 1014.17 1014.36 1014.58 1014.86 1015.21 1015.63 1016.05 1016.43 1016.70 1016.82 1016.76 1016.54 1016.19 1015.77 1015.34 1014.96 1014.68 1014.55 1014.57 1014.73 1015.01 1015.39 1015.82 1016.27 1016.71 1017.11 1017.48 1017.78 1018.03 1018.23 1018.38 1018.51 1018.62 1018.72 1018.84 1018.98 1019.15 1019.34 1019.56
1005.82 1006.69 1007.79 1009.03 1010.31 1011.53 1012.60 1013.46 1014.11 1014.54 1014.83 1015.03 1015.22 1015.45 1015.75 1016.13 1016.55 1016.99 1017.36 1017.64 1017.78 1017.76 1017.61 1017.34 1017.00 1016.66 1016.37 1016.18 1016.11 1016.18 1016.38 1016.70 1017.09 1017.52 1017.95 1018.36 1018.70 1018.97 1019.17 1019.30 1019.37 1019.42 1019.46 1019.51 1019.60 1019.72 1019.88 1020.06 1020.24
1005.80 1006.56 1007.56 1008.75 1010.02 1011.28 1012.44 1013.44 1014.24 1014.82 1015.23 1015.52 1015.75 1015.99 1016.28 1016.63 1017.06 1017.54 1018.00 1018.42 1018.74 1018.92 1018.96 1018.86 1018.66 1018.39 1018.11 1017.88 1017.74 1017.71 1017.81 1018.03 1018.35 1018.72 1019.10 1019.46 1019.76 1019.98 1020.12 1020.17 1020.17 1020.15 1020.13 1020.14 1020.19 1020.30 1020.45 1020.63 1020.81
1005.80 1006.36 1007.18 1008.21 1009.40 1010.66 1011.90 1013.03 1014.01 1014.80 1015.40 1015.84 1016.18 1016.47 1016.78 1017.13 1017.55 1018.04 1018.55 1019.06 1019.52 1019.87 1020.08 1020.15 1020.08 1019.90 1019.67 1019.42 1019.22 1019.11 1019.11 1019.22 1019.44 1019.73 1020.04 1020.34 1020.58 1020.75 1020.83 1020.83 1020.77 1020.70 1020.63 1020.60 1020.63 1020.73 1020.88 1021.06 1021.25
1005.85 1006.14 1006.71 1007.54 1008.59 1009.80 1011.08 1012.34 1013.52 1014.53 1015.36 1016.01 1016.50 1016.89 1017.24 1017.58 1017.98 1018.44 1018.96 1019.51 1020.03 1020.50 1020.85 1021.06 1021.12 1021.04 1020.86 1020.63 1020.40 1020.22 1020.13 1020.15 1020.27 1020.46 1020.71 1020.95 1021.15 1021.28 1021.33 1021.30 1021.22 1021.11 1021.01 1020.96 1020.97 1021.06 1021.20 1021.39 1021.58
Thickness
5797 5803 5807 5803 5787 5780 5784 5811 5829 5826 5827 5837 5838 5831 5820 5812 5799 5786 5817 5834 5833 5824 5815 5809 5806 5803 5800 5796 5793 5790 5787 5784 5782 5779 5777 5775 5773 5771 5769 5767 5765 5763 5762 5760 5758 5757 5755 5753 5752
5796 5803 5801 5790 5773 5767 5790 5819 5826 5829 5833 5839 5837 5830 5822 5817 5822 5819 5823 5830 5830 5820 5813 5808 5803 5801 5797 5794 5791 5787 5785 5782 5779 5777 5775 5772 5770 5768 5766 5764 5762 5760 5759 5757 5756 5754 5753 5751 5750
5792 5798 5786 5778 5770 5773 5795 5823 5826 5833 5838 5834 5828 5830 5823 5816 5823 5824 5827 5830 5826 5817 5811 5805 5801 5798 5795 5792 5788 5785 5782 5779 5777 5774 5772 5770 5767 5765 5763 5761 5759 5757 5756 5755 5753 5752 5750 5749 5748
5789 5786 5781 5772 5772 5795 5812 5826 5830 5826 5830 5832 5826 5818 5822 5828 5828 5829 5830 5828 5821 5814 5809 5801 5798 5794 5791 5788 5785 5782 5779 5776 5774 5771 5769 5767 5764 5762 5760 5758 5757 5755 5753 5752 5751 5749 5748 5747 5746
5785 5775 5763 5763 5778 5804 5826 5836 5833 5822 5820 5824 5823 5812 5809 5825 5832 5830 5828 5824 5817 5812 5806 5798 5794 5790 5787 5784 5782 5779 5776 5773 5770 5768 5765 5763 5761 5759 5758 5756 5754 5752 5750 5749 5748 5747 5746 5745 5744
5772 5770 5755 5758 5780 5807 5826 5836 5829 5822 5822 5824 5822 5812 5808 5825 5825 5825 5826 5822 5817 5811 5804 5794 5789 5786 5783 5780 5778 5775 5773 5770 5767 5764 5762 5760 5758 5756 5754 5753 5751 5749 5748 5746 5745 5745 5744 5743 5743
5763 5762 5758 5769 5784 5804 5823 5834 5822 5816 5814 5820 5825 5811 5806 5815 5821 5824 5823 5820 5816 5810 5801 5791 5786 5781 5778 5777 5774 5772 5769 5766 5764 5761 5758 5756 5754 5752 5751 5750 5748 5746 5745 5744 5743 5742 5742 5741 5741
5773 5762 5757 5770 5780 5796 5822 5822 5819 5812 5811 5826 5824 5806 5796 5808 5818 5819 5818 5814 5811 5805 5797 5789 5785 5780 5776 5772 5770 5768 5765 5762 5760 5757 5755 5752 5750 5749 5747 5746 5745 5743 5742 5741 5740 5739 5739 5739 5739
5774 5750 5749 5769 5783 5798 5816 5807 5810 5816 5810 5812 5816 5812 5808 5814 5815 5810 5807 5804 5802 5799 5794 5789 5784 5780 5776 5771 5767 5763 5761 5758 5756 5753 5751 5749 5748 5746 5745 5744 5743 5741 5740 5739 5738 5737 5737 5736 5737
5763 5745 5758 5782 5791 5795 5801 5798 5799 5798 5793 5796 5802 5808 5811 5807 5805 5800 5796 5793 5791 5789 5789 5787 5784 5779 5775 5771 5764 5760 5757 5754 5752 5751 5748 5746 5747 5746 5745 5743 5740 5739 5737 5736 5736 5736 5735 5734 5736
5762 5754 5769 5783 5788 5787 5785 5788 5794 5785 5778 5787 5790 5795 5799 5798 5796 5794 5791 5788 5788 5787 5784 5784 5781 5776 5774 5770 5762 5759 5757 5752 5749 5748 5745 5745 5745 5744 5743 5740 5738 5736 5735 5735 5734 5734 5734 5735 5737
5760 5764 5771 5774 5780 5777 5775 5778 5779 5779 5779 5791 5794 5795 5792 5789 5788 5787 5784 5785 5785 5783 5781 5781 5779 5774 5770 5767 5761 5757 5755 5750 5748 5746 5744 5743 5743 5743 5741 5739 5736 5735 5734 5734 5734 5734 5735 5736 5738
5757 5760 5768 5772 5771 5770 5770 5769 5769 5772 5783 5788 5787 5783 5781 5779 5777 5780 5783 5781 5777 5773 5774 5775 5773 5769 5765 5762 5757 5754 5753 5749 5746 5744 5741 5740 5739 5739 5740 5736 5733 5735 5735 5734 5734 5734 5735 5736 5737
5758 5762 5763 5766 5765 5766 5760 5762 5763 5765 5776 5775 5773 5770 5769 5768 5768 5768 5768 5768 5767 5764 5762 5766 5766 5762 5760 5757 5753 5749 5748 5746 5743 5740 5737 5734 5734 5735 5735 5732 5732 5733 5734 5731 5729 5731 5732 5732 5733
5757 5748 5749 5756 5760 5762 5758 5748 5755 5766 5769 5763 5761 5760 5758 5757 5756 5755 5756 5757 5756 5756 5753 5754 5758 5756 5754 5752 5748 5745 5741 5739 5737 5734 5732 5729 5727 5728 5728 5728 5728 5727 5728 5729 5727 5726 5727 5727 5727
5745 5735 5731 5752 5759 5760 5746 5732 5755 5766 5760 5752 5750 5748 5746 5744 5745 5744 5744 5746 5749 5747 5745 5746 5752 5751 5748 5746 5742 5738 5734 5732 5730 5728 5726 5724 5723 5721 5721 5721 5721 5721 5722 5723 5722 5722 5720 5719 5718
5732 5725 5735 5754 5762 5757 5744 5733 5748 5758 5753 5743 5738 5736 5734 5731 5732 5732 5733 5733 5736 5738 5739 5739 5742 5741 5738 5735 5732 5729 5726 5725 5723 5721 5719 5718 5717 5716 5716 5713 5713 5714 5714 5715 5716 5715 5713 5711 5710
5726 5734 5741 5747 5757 5748 5738 5733 5741 5746 5743 5735 5729 5728 5723 5720 5719 5721 5723 5724 5726 5729 5730 5730 5731 5730 5729 5727 5724 5722 5719 5718 5716 5713 5713 5712 5710 5710 5707 5707 5708 5708 5707 5707 5708 5707 5707 5705 5704
5733 5729 5730 5741 5756 5742 5731 5730 5732 5735 5734 5727 5722 5719 5714 5711 5713 5713 5713 5714 5716 5717 5718 5720 5720 5721 5721 5719 5717 5713 5709 5708 5707 5706 5704 5704 5703 5702 5700 5701 5701 5701 5701 5701 5701 5700 5699 5697 5696
5724 5719 5722 5734 5746 5736 5725 5723 5729 5732 5727 5721 5714 5709 5704 5702 5702 5701 5701 5701 5703 5704 5706 5708 5710 5711 5713 5712 5711 5708 5705 5701 5699 5698 5697 5696 5695 5695 5694 5694 5693 5693 5693 5693 5693 5693 5692 5690 5689
5718 5716 5719 5721 5730 5731 5718 5711 5716 5721 5720 5713 5708 5700 5694 5692 5689 5688 5688 5688 5689 5690 5693 5696 5698 5701 5702 5702 5702 5700 5697 5693 5690 5687 5685 5685 5686 5687 5686 5686 5685 5685 5685 5684 5684 5685 5685 5682 5680
5710 5725 5723 5719 5711 5707 5709 5688 5700 5706 5701 5697 5691 5688 5683 5681 5679 5677 5676 5675 5676 5678 5681 5683 5686 5689 5691 5693 5693 5692 5688 5683 5680 5676 5675 5674 5675 5676 5676 5676 5676 5676 5675 5674 5675 5676 5676 5675 5672
5719 5729 5721 5713 5705 5699 5699 5686 5689 5699 5687 5681 5678 5676 5672 5670 5667 5664 5663 5663 5665 5667 5669 5671 5674 5676 5679 5681 5682 5681 5677 5674 5670 5667 5665 5663 5663 5663 5663 5664 5665 5665 5664 5664 5664 5664 5665 5664 5662
5727 5720 5713 5707 5697 5678 5693 5681 5680 5687 5686 5676 5669 5664 5660 5659 5656 5653 5652 5652 5652 5655 5657 5659 5661 5663 5665 5668 5668 5667 5665 5662 5659 5656 5653 5651 5651 5651 5651 5652 5652 5653 5653 5653 5653 5652 5652 5650 5650
5720 5700 5678 5668 5664 5668 5688 5680 5677 5687 5689 5677 5665 5655 5650 5648 5645 5642 5640 5640 5640 5642 5644 5647 5648 5650 5652 5653 5654 5654 5652 5650 5647 5644 5642 5641 5640 5639 5638 5639 5640 5640 5641 5641 5642 5640 5639 5638 5637
5715 5704 5675 5654 5657 5667 5673 5667 5668 5678 5677 5668 5658 5647 5640 5636 5634 5631 5629 5628 5628 5630 5632 5634 5635 5636 5638 5640 5640 5639 5639 5637 5634 5632 5631 5630 5629 5627 5627 5628 5628 5628 5629 5630 5630 5629 5628 5627 5626
5711 5706 5707 5684 5676 5667 5667 5665 5659 5662 5654 5649 5644 5638 5631 5627 5624 5621 5618 5618 5617 5618 5619 5621 5623 5624 5625 5626 5626 5625 5625 5624 5622 5621 5621 5619 5618 5617 5616 5617 5617 5617 5618 5618 5618 5617 5616 5616 5615
5723 5715 5702 5685 5663 5653 5661 5659 5651 5647 5641 5637 5633 5628 5623 5619 5616 5612 5609 5608 5608 5607 5608 5609 5611 5612 5612 5613 5613 5612 5612 5611 5610 5609 5607 5607 5606 5606 5606 5605 5605 5606 5606 5606 5606 5605 5605 5604 5602
5714 5708 5702 5693 5685 5664 5650 5648 5663 5654 5644 5634 5627 5622 5616 5611 5607 5604 5602 5600 5599 5598 5598 5598 5599 5599 5599 5599 5599 5599 5598 5597 5597 5596 5595 5595 5595 5595 5595 5594 5595 5595 5595 5595 5595 5594 5594 5592 5590
5717 5711 5704 5684 5678 5679 5663 5648 5664 5656 5645 5632 5621 5613 5607 5603 5600 5597 5595 5593 5591 5589 5588 5587 5587 5587 5587 5586 5586 5586 5585 5585 5585 5583 5584 5584 5584 5584 5584 5584 5584 5585 5584 5584 5584 5583 5582 5580 5578